Year,Month,Day,Hour,Minute,Value (Times are PST for temperature in C)
2016,11,14,09,33,7.50
2016,11,14,09,34,7.50
2016,11,14,09,35,7.60
2016,11,14,09,36,7.70
2016,11,14,09,37,7.70
2016,11,14,09,38,7.70
2016,11,14,09,39,7.70
2016,11,14,09,40,7.70
2016,11,14,09,41,7.70
2016,11,14,09,42,7.70
2016,11,14,09,43,7.70
2016,11,14,09,44,7.70
2016,11,14,09,45,7.70
2016,11,14,09,46,7.70
2016,11,14,09,47,7.70
2016,11,14,09,48,7.70
2016,11,14,09,49,7.80
2016,11,14,09,50,7.80
2016,11,14,09,51,7.80
2016,11,14,09,52,7.80
2016,11,14,09,53,7.80
2016,11,14,09,54,7.90
2016,11,14,09,55,7.90
2016,11,14,09,56,8.00
2016,11,14,09,57,8.00
2016,11,14,09,58,8.00
2016,11,14,09,59,8.10
2016,11,14,10,00,8.10
2016,11,14,10,01,8.10
2016,11,14,10,02,8.20
2016,11,14,10,03,8.20
2016,11,14,10,04,8.20
2016,11,14,10,05,8.20
2016,11,14,10,06,8.30
2016,11,14,10,07,8.30
2016,11,14,10,08,8.40
2016,11,14,10,09,8.50
2016,11,14,10,10,8.50
2016,11,14,10,11,8.50
2016,11,14,10,12,8.60
2016,11,14,10,13,8.70
2016,11,14,10,14,8.70
2016,11,14,10,15,8.80
2016,11,14,10,16,8.90
2016,11,14,10,17,9.00
2016,11,14,10,18,9.10
2016,11,14,10,19,9.20
2016,11,14,10,20,9.20
2016,11,14,10,21,9.30
2016,11,14,10,22,9.40
2016,11,14,10,23,9.50
2016,11,14,10,24,9.50
2016,11,14,10,25,9.70
2016,11,14,10,26,9.70
2016,11,14,10,27,9.70
2016,11,14,10,28,9.60
2016,11,14,10,29,9.60
2016,11,14,10,30,9.70
2016,11,14,10,31,9.70
2016,11,14,10,32,9.80
2016,11,14,10,33,9.80
2016,11,14,10,34,9.90
2016,11,14,10,35,9.90
2016,11,14,10,36,9.90
2016,11,14,10,37,10.00
2016,11,14,10,38,10.10
2016,11,14,10,39,10.20
2016,11,14,10,40,10.20
2016,11,14,10,41,10.20
2016,11,14,10,42,10.30
2016,11,14,10,43,10.40
2016,11,14,10,44,10.40
2016,11,14,10,45,10.40
2016,11,14,10,46,10.30
2016,11,14,10,47,10.30
2016,11,14,10,48,10.40
2016,11,14,10,49,10.30
2016,11,14,10,50,10.30
2016,11,14,10,51,10.30
2016,11,14,10,52,10.20
2016,11,14,10,53,10.20
2016,11,14,10,54,10.20
2016,11,14,10,55,10.20
2016,11,14,10,56,10.20
2016,11,14,10,57,10.10
2016,11,14,10,58,10.10
2016,11,14,10,59,10.10
2016,11,14,11,00,10.00
2016,11,14,11,01,9.90
2016,11,14,11,02,9.80
2016,11,14,11,03,9.70
2016,11,14,11,04,9.70
2016,11,14,11,05,9.70
2016,11,14,11,06,9.70
2016,11,14,11,07,9.80
2016,11,14,11,08,9.80
2016,11,14,11,09,9.80
2016,11,14,11,10,9.90
2016,11,14,11,11,9.90
2016,11,14,11,12,10.00
2016,11,14,11,13,10.10
2016,11,14,11,14,10.10
2016,11,14,11,15,10.20
2016,11,14,11,16,10.20
2016,11,14,11,17,10.30
2016,11,14,11,18,10.30
2016,11,14,11,19,10.30
2016,11,14,11,20,10.30
2016,11,14,11,21,10.40
2016,11,14,11,22,10.40
2016,11,14,11,23,10.40
2016,11,14,11,24,10.40
2016,11,14,11,25,10.40
2016,11,14,11,26,10.50
2016,11,14,11,27,10.60
2016,11,14,11,28,10.60
2016,11,14,11,29,10.60
2016,11,14,11,30,10.70
2016,11,14,11,31,10.70
2016,11,14,11,32,10.60
2016,11,14,11,33,10.60
2016,11,14,11,34,10.60
2016,11,14,11,35,10.60
2016,11,14,11,36,10.50
2016,11,14,11,37,10.50
2016,11,14,11,38,10.60
2016,11,14,11,39,10.60
2016,11,14,11,40,10.60
2016,11,14,11,41,10.60
2016,11,14,11,42,10.60
2016,11,14,11,43,10.60
2016,11,14,11,44,10.60
2016,11,14,11,45,10.60
2016,11,14,11,46,10.60
2016,11,14,11,47,10.60
2016,11,14,11,48,10.60
2016,11,14,11,49,10.60
2016,11,14,11,50,10.60
2016,11,14,11,51,10.60
2016,11,14,11,52,10.50
2016,11,14,11,53,10.40
2016,11,14,11,54,10.30
2016,11,14,11,55,10.30
2016,11,14,11,56,10.30
2016,11,14,11,57,10.30
2016,11,14,11,58,10.30
2016,11,14,11,59,10.30
2016,11,14,12,00,10.30
2016,11,14,12,01,10.30
2016,11,14,12,02,10.30
2016,11,14,12,03,10.30
2016,11,14,12,04,10.40
2016,11,14,12,05,10.30
2016,11,14,12,06,10.40
2016,11,14,12,07,10.40
2016,11,14,12,08,10.40
2016,11,14,12,09,10.40
2016,11,14,12,10,10.40
2016,11,14,12,11,10.40
2016,11,14,12,12,10.40
2016,11,14,12,13,10.40
2016,11,14,12,14,10.40
2016,11,14,12,15,10.60
2016,11,14,12,16,10.60
2016,11,14,12,17,10.60
2016,11,14,12,18,10.60
2016,11,14,12,19,10.60
2016,11,14,12,20,10.60
2016,11,14,12,21,10.60
2016,11,14,12,22,10.70
2016,11,14,12,23,10.60
2016,11,14,12,24,10.60
2016,11,14,12,25,10.70
2016,11,14,12,26,10.80
2016,11,14,12,27,10.90
2016,11,14,12,28,10.90
2016,11,14,12,29,10.90
2016,11,14,12,30,11.00
2016,11,14,12,31,11.10
2016,11,14,12,32,11.10
2016,11,14,12,33,11.10
2016,11,14,12,34,11.20
2016,11,14,12,35,11.20
2016,11,14,12,36,11.30
2016,11,14,12,37,11.40
2016,11,14,12,38,11.40
2016,11,14,12,39,11.40
2016,11,14,12,40,11.40
2016,11,14,12,41,11.40
2016,11,14,12,42,11.50
2016,11,14,12,43,11.40
2016,11,14,12,44,11.40
2016,11,14,12,45,11.40
2016,11,14,12,46,11.40
2016,11,14,12,47,11.30
2016,11,14,12,48,11.20
2016,11,14,12,49,11.20
2016,11,14,12,50,11.20
2016,11,14,12,51,11.30
2016,11,14,12,52,11.30
2016,11,14,12,53,11.30
2016,11,14,12,54,11.40
2016,11,14,12,55,11.40
2016,11,14,12,56,11.40
2016,11,14,12,57,11.40
2016,11,14,12,58,11.40
2016,11,14,12,59,11.40
2016,11,14,13,00,11.40
2016,11,14,13,01,11.20
2016,11,14,13,02,11.10
2016,11,14,13,03,11.10
2016,11,14,13,04,11.10
2016,11,14,13,05,11.10
2016,11,14,13,06,11.10
2016,11,14,13,07,11.10
2016,11,14,13,08,11.00
2016,11,14,13,09,10.90
2016,11,14,13,10,10.80
2016,11,14,13,11,10.80
2016,11,14,13,12,10.80
2016,11,14,13,13,10.70
2016,11,14,13,14,10.70
2016,11,14,13,15,10.60
2016,11,14,13,16,10.60
2016,11,14,13,17,10.60
2016,11,14,13,18,10.60
2016,11,14,13,19,10.50
2016,11,14,13,20,10.40
2016,11,14,13,21,10.40
2016,11,14,13,22,10.30
2016,11,14,13,23,10.30
2016,11,14,13,24,10.30
2016,11,14,13,25,10.30
2016,11,14,13,26,10.20
2016,11,14,13,27,10.10
2016,11,14,13,28,10.10
2016,11,14,13,29,9.90
2016,11,14,13,30,9.90
2016,11,14,13,31,9.90
2016,11,14,13,32,9.90
2016,11,14,13,33,9.90
2016,11,14,13,34,9.80
2016,11,14,13,35,9.80
2016,11,14,13,36,9.70
2016,11,14,13,37,9.70
2016,11,14,13,38,9.70
2016,11,14,13,39,9.70
2016,11,14,13,40,9.70
2016,11,14,13,41,9.70
2016,11,14,13,42,9.60
2016,11,14,13,43,9.60
2016,11,14,13,44,9.60
2016,11,14,13,45,9.60
2016,11,14,13,46,9.60
2016,11,14,13,47,9.50
2016,11,14,13,48,9.50
2016,11,14,13,49,9.50
2016,11,14,13,50,9.50
2016,11,14,13,51,9.50
2016,11,14,13,52,9.40
2016,11,14,13,53,9.40
2016,11,14,13,54,9.40
2016,11,14,13,55,9.40
2016,11,14,13,56,9.40
2016,11,14,13,57,9.40
2016,11,14,13,58,9.30
2016,11,14,13,59,9.30
2016,11,14,14,00,9.30
2016,11,14,14,01,9.30
2016,11,14,14,02,9.20
2016,11,14,14,03,9.20
2016,11,14,14,04,9.20
2016,11,14,14,05,9.20
2016,11,14,14,06,9.20
2016,11,14,14,07,9.20
2016,11,14,14,08,9.30
2016,11,14,14,09,9.30
2016,11,14,14,10,9.30
2016,11,14,14,11,9.30
2016,11,14,14,12,9.30
2016,11,14,14,13,9.20
2016,11,14,14,14,9.30
2016,11,14,14,15,9.30
2016,11,14,14,16,9.30
2016,11,14,14,17,9.30
2016,11,14,14,18,9.30
2016,11,14,14,19,9.30
2016,11,14,14,20,9.30
2016,11,14,14,21,9.40
2016,11,14,14,22,9.40
2016,11,14,14,23,9.40
2016,11,14,14,24,9.40
2016,11,14,14,25,9.40
2016,11,14,14,26,9.40
2016,11,14,14,27,9.40
2016,11,14,14,28,9.40
2016,11,14,14,29,9.40
2016,11,14,14,30,9.40
2016,11,14,14,31,9.50
2016,11,14,14,32,9.50
2016,11,14,14,33,9.50
2016,11,14,14,34,9.50
2016,11,14,14,35,9.50
2016,11,14,14,36,9.50
2016,11,14,14,37,9.50
2016,11,14,14,38,9.50
2016,11,14,14,39,9.50
2016,11,14,14,40,9.60
2016,11,14,14,41,9.60
2016,11,14,14,42,9.60
2016,11,14,14,43,9.60
2016,11,14,14,44,9.60
2016,11,14,14,45,9.50
2016,11,14,14,46,9.50
2016,11,14,14,47,9.50
2016,11,14,14,48,9.50
2016,11,14,14,49,9.60
2016,11,14,14,50,9.60
2016,11,14,14,51,9.50
2016,11,14,14,52,9.50
2016,11,14,14,53,9.50
2016,11,14,14,54,9.50
2016,11,14,14,55,9.50
2016,11,14,14,56,9.50
2016,11,14,14,57,9.50
2016,11,14,14,58,9.50
2016,11,14,14,59,9.50
2016,11,14,15,00,9.50
2016,11,14,15,01,9.50
2016,11,14,15,02,9.50
2016,11,14,15,03,9.60
2016,11,14,15,04,9.60
2016,11,14,15,05,9.60
2016,11,14,15,06,9.60
2016,11,14,15,07,9.50
2016,11,14,15,08,9.50
2016,11,14,15,09,9.50
2016,11,14,15,10,9.50
2016,11,14,15,11,9.50
2016,11,14,15,12,9.60
2016,11,14,15,13,9.60
2016,11,14,15,14,9.50
2016,11,14,15,15,9.50
2016,11,14,15,16,9.50
2016,11,14,15,17,9.50
2016,11,14,15,18,9.50
2016,11,14,15,19,9.50
2016,11,14,15,20,9.50
2016,11,14,15,21,9.50
2016,11,14,15,22,9.50
2016,11,14,15,23,9.50
2016,11,14,15,24,9.40
2016,11,14,15,25,9.40
2016,11,14,15,26,9.40
2016,11,14,15,27,9.40
2016,11,14,15,28,9.40
2016,11,14,15,29,9.40
2016,11,14,15,30,9.40
2016,11,14,15,31,9.40
2016,11,14,15,32,9.40
2016,11,14,15,33,9.40
2016,11,14,15,34,9.30
2016,11,14,15,35,9.30
2016,11,14,15,36,9.30
2016,11,14,15,37,9.30
2016,11,14,15,38,9.30
2016,11,14,15,39,9.30
2016,11,14,15,40,9.30
2016,11,14,15,41,9.30
2016,11,14,15,42,9.30
2016,11,14,15,43,9.30
2016,11,14,15,44,9.20
2016,11,14,15,45,9.20
2016,11,14,15,46,9.20
2016,11,14,15,47,9.20
2016,11,14,15,48,9.20
2016,11,14,15,49,9.20
2016,11,14,15,50,9.20
2016,11,14,15,51,9.20
2016,11,14,15,52,9.20
2016,11,14,15,53,9.20
2016,11,14,15,54,9.20
2016,11,14,15,55,9.20
2016,11,14,15,56,9.20
2016,11,14,15,57,9.20
2016,11,14,15,58,9.20
2016,11,14,15,59,9.20
2016,11,14,16,00,9.20
2016,11,14,16,01,9.20
2016,11,14,16,02,9.20
2016,11,14,16,03,9.20
2016,11,14,16,04,9.20
2016,11,14,16,05,9.20
2016,11,14,16,06,9.20
2016,11,14,16,07,9.10
2016,11,14,16,08,9.10
2016,11,14,16,09,9.10
2016,11,14,16,10,9.10
2016,11,14,16,11,9.00
2016,11,14,16,12,9.00
2016,11,14,16,13,9.00
2016,11,14,16,14,9.00
2016,11,14,16,15,9.00
2016,11,14,16,16,9.00
2016,11,14,16,17,8.90
2016,11,14,16,18,8.90
2016,11,14,16,19,8.90
2016,11,14,16,20,8.90
2016,11,14,16,21,8.90
2016,11,14,16,22,8.90
2016,11,14,16,23,8.80
2016,11,14,16,24,8.80
2016,11,14,16,25,8.80
2016,11,14,16,26,8.80
2016,11,14,16,27,8.70
2016,11,14,16,28,8.70
2016,11,14,16,29,8.70
2016,11,14,16,30,8.70
2016,11,14,16,31,8.70
2016,11,14,16,32,8.70
2016,11,14,16,33,8.70
2016,11,14,16,34,8.70
2016,11,14,16,35,8.60
2016,11,14,16,36,8.60
2016,11,14,16,37,8.60
2016,11,14,16,38,8.60
2016,11,14,16,39,8.60
2016,11,14,16,40,8.60
2016,11,14,16,41,8.50
2016,11,14,16,42,8.50
2016,11,14,16,43,8.50
2016,11,14,16,44,8.50
2016,11,14,16,45,8.50
2016,11,14,16,46,8.50
2016,11,14,16,47,8.50
2016,11,14,16,48,8.50
2016,11,14,16,49,8.40
2016,11,14,16,50,8.40
2016,11,14,16,51,8.40
2016,11,14,16,52,8.40
2016,11,14,16,53,8.40
2016,11,14,16,54,8.30
2016,11,14,16,55,8.30
2016,11,14,16,56,8.30
2016,11,14,16,57,8.30
2016,11,14,16,58,8.30
2016,11,14,16,59,8.30
2016,11,14,17,00,8.30
2016,11,14,17,01,8.20
2016,11,14,17,02,8.20
2016,11,14,17,03,8.20
2016,11,14,17,04,8.20
2016,11,14,17,05,8.20
2016,11,14,17,06,8.20
2016,11,14,17,07,8.20
2016,11,14,17,08,8.20
2016,11,14,17,09,8.20
2016,11,14,17,10,8.20
2016,11,14,17,11,8.20
2016,11,14,17,12,8.20
2016,11,14,17,13,8.20
2016,11,14,17,14,8.20
2016,11,14,17,15,8.20
2016,11,14,17,16,8.20
2016,11,14,17,17,8.20
2016,11,14,17,18,8.20
2016,11,14,17,19,8.20
2016,11,14,17,20,8.20
2016,11,14,17,21,8.10
2016,11,14,17,22,8.10
2016,11,14,17,23,8.10
2016,11,14,17,24,8.10
2016,11,14,17,25,8.10
2016,11,14,17,26,8.10
2016,11,14,17,27,8.10
2016,11,14,17,28,8.10
2016,11,14,17,29,8.10
2016,11,14,17,30,8.10
2016,11,14,17,31,8.10
2016,11,14,17,32,8.10
2016,11,14,17,33,8.00
2016,11,14,17,34,8.00
2016,11,14,17,35,8.00
2016,11,14,17,36,8.00
2016,11,14,17,37,8.00
2016,11,14,17,38,8.00
2016,11,14,17,39,8.00
2016,11,14,17,40,8.00
2016,11,14,17,41,8.00
2016,11,14,17,42,8.00
2016,11,14,17,43,7.90
2016,11,14,17,44,7.90
2016,11,14,17,45,7.90
2016,11,14,17,46,7.90
2016,11,14,17,47,7.90
2016,11,14,17,48,7.90
2016,11,14,17,49,7.90
2016,11,14,17,50,7.90
2016,11,14,17,51,7.90
2016,11,14,17,52,7.90
2016,11,14,17,53,7.90
2016,11,14,17,54,7.90
2016,11,14,17,55,7.90
2016,11,14,17,56,7.90
2016,11,14,17,57,8.00
2016,11,14,17,58,8.00
2016,11,14,17,59,8.00
2016,11,14,18,00,8.00
2016,11,14,18,01,8.00
2016,11,14,18,02,8.00
2016,11,14,18,03,8.00
2016,11,14,18,04,8.00
2016,11,14,18,05,8.00
2016,11,14,18,06,8.00
2016,11,14,18,07,8.00
2016,11,14,18,08,8.00
2016,11,14,18,09,8.00
2016,11,14,18,10,8.00
2016,11,14,18,11,8.00
2016,11,14,18,12,8.00
2016,11,14,18,13,8.00
2016,11,14,18,14,8.00
2016,11,14,18,15,8.00
2016,11,14,18,16,8.00
2016,11,14,18,17,8.00
2016,11,14,18,18,8.00
2016,11,14,18,19,8.00
2016,11,14,18,20,8.00
2016,11,14,18,21,7.90
2016,11,14,18,22,7.90
2016,11,14,18,23,7.90
2016,11,14,18,24,7.90
2016,11,14,18,25,7.90
2016,11,14,18,26,7.90
2016,11,14,18,27,7.90
2016,11,14,18,28,7.90
2016,11,14,18,29,7.90
2016,11,14,18,30,7.90
2016,11,14,18,31,7.90
2016,11,14,18,32,7.90
2016,11,14,18,33,7.80
2016,11,14,18,34,7.80
2016,11,14,18,35,7.80
2016,11,14,18,36,7.80
2016,11,14,18,37,7.80
2016,11,14,18,38,7.80
2016,11,14,18,39,7.80
2016,11,14,18,40,7.80
2016,11,14,18,41,7.80
2016,11,14,18,42,7.80
2016,11,14,18,43,7.80
2016,11,14,18,44,7.80
2016,11,14,18,45,7.80
2016,11,14,18,46,7.80
2016,11,14,18,47,7.70
2016,11,14,18,48,7.70
2016,11,14,18,49,7.70
2016,11,14,18,50,7.70
2016,11,14,18,51,7.70
2016,11,14,18,52,7.70
2016,11,14,18,53,7.70
2016,11,14,18,54,7.70
2016,11,14,18,55,7.70
2016,11,14,18,56,7.60
2016,11,14,18,57,7.60
2016,11,14,18,58,7.60
2016,11,14,18,59,7.60
2016,11,14,19,00,7.60
2016,11,14,19,01,7.60
2016,11,14,19,02,7.60
2016,11,14,19,03,7.60
2016,11,14,19,04,7.60
2016,11,14,19,05,7.60
2016,11,14,19,06,7.60
2016,11,14,19,07,7.60
2016,11,14,19,08,7.60
2016,11,14,19,09,7.60
2016,11,14,19,10,7.60
2016,11,14,19,11,7.60
2016,11,14,19,12,7.60
2016,11,14,19,13,7.60
2016,11,14,19,14,7.60
2016,11,14,19,15,7.60
2016,11,14,19,16,7.60
2016,11,14,19,17,7.60
2016,11,14,19,18,7.50
2016,11,14,19,19,7.50
2016,11,14,19,20,7.50
2016,11,14,19,21,7.50
2016,11,14,19,22,7.50
2016,11,14,19,23,7.50
2016,11,14,19,24,7.50
2016,11,14,19,25,7.40
2016,11,14,19,26,7.40
2016,11,14,19,27,7.40
2016,11,14,19,28,7.40
2016,11,14,19,29,7.40
2016,11,14,19,30,7.40
2016,11,14,19,31,7.40
2016,11,14,19,32,7.40
2016,11,14,19,33,7.40
2016,11,14,19,34,7.40
2016,11,14,19,35,7.40
2016,11,14,19,36,7.40
2016,11,14,19,37,7.40
2016,11,14,19,38,7.40
2016,11,14,19,39,7.40
2016,11,14,19,40,7.40
2016,11,14,19,41,7.40
2016,11,14,19,42,7.40
2016,11,14,19,43,7.40
2016,11,14,19,44,7.40
2016,11,14,19,45,7.40
2016,11,14,19,46,7.40
2016,11,14,19,47,7.40
2016,11,14,19,48,7.40
2016,11,14,19,49,7.40
2016,11,14,19,50,7.40
2016,11,14,19,51,7.40
2016,11,14,19,52,7.40
2016,11,14,19,53,7.40
2016,11,14,19,54,7.30
2016,11,14,19,55,7.30
2016,11,14,19,56,7.30
2016,11,14,19,57,7.30
2016,11,14,19,58,7.30
2016,11,14,19,59,7.30
2016,11,14,20,00,7.30
2016,11,14,20,01,7.30
2016,11,14,20,02,7.30
2016,11,14,20,03,7.30
2016,11,14,20,04,7.30
2016,11,14,20,05,7.30
2016,11,14,20,06,7.30
2016,11,14,20,07,7.30
2016,11,14,20,08,7.30
2016,11,14,20,09,7.30
2016,11,14,20,10,7.30
2016,11,14,20,11,7.30
2016,11,14,20,12,7.30
2016,11,14,20,13,7.30
2016,11,14,20,14,7.20
2016,11,14,20,15,7.20
2016,11,14,20,16,7.20
2016,11,14,20,17,7.20
2016,11,14,20,18,7.20
2016,11,14,20,19,7.20
2016,11,14,20,20,7.20
2016,11,14,20,21,7.20
2016,11,14,20,22,7.20
2016,11,14,20,23,7.20
2016,11,14,20,24,7.20
2016,11,14,20,25,7.20
2016,11,14,20,26,7.20
2016,11,14,20,27,7.20
2016,11,14,20,28,7.20
2016,11,14,20,29,7.20
2016,11,14,20,30,7.20
2016,11,14,20,31,7.20
2016,11,14,20,32,7.20
2016,11,14,20,33,7.20
2016,11,14,20,34,7.20
2016,11,14,20,35,7.20
2016,11,14,20,36,7.20
2016,11,14,20,37,7.30
2016,11,14,20,38,7.30
2016,11,14,20,39,7.30
2016,11,14,20,40,7.30
2016,11,14,20,41,7.30
2016,11,14,20,42,7.30
2016,11,14,20,43,7.30
2016,11,14,20,44,7.30
2016,11,14,20,45,7.30
2016,11,14,20,46,7.30
2016,11,14,20,47,7.40
2016,11,14,20,48,7.40
2016,11,14,20,49,7.40
2016,11,14,20,50,7.40
2016,11,14,20,51,7.40
2016,11,14,20,52,7.50
2016,11,14,20,53,7.50
2016,11,14,20,54,7.50
2016,11,14,20,55,7.50
2016,11,14,20,56,7.50
2016,11,14,20,57,7.50
2016,11,14,20,58,7.60
2016,11,14,20,59,7.60
2016,11,14,21,00,7.60
2016,11,14,21,01,7.60
2016,11,14,21,02,7.60
2016,11,14,21,03,7.60
2016,11,14,21,04,7.70
2016,11,14,21,05,7.70
2016,11,14,21,06,7.70
2016,11,14,21,07,7.70
2016,11,14,21,08,7.70
2016,11,14,21,09,7.70
2016,11,14,21,10,7.70
2016,11,14,21,11,7.70
2016,11,14,21,12,7.80
2016,11,14,21,13,7.80
2016,11,14,21,14,7.80
2016,11,14,21,15,7.80
2016,11,14,21,16,7.80
2016,11,14,21,17,7.80
2016,11,14,21,18,7.80
2016,11,14,21,19,7.80
2016,11,14,21,20,7.80
2016,11,14,21,21,7.80
2016,11,14,21,22,7.80
2016,11,14,21,23,7.80
2016,11,14,21,24,7.80
2016,11,14,21,25,7.80
2016,11,14,21,26,7.80
2016,11,14,21,27,7.80
2016,11,14,21,28,7.80
2016,11,14,21,29,7.80
2016,11,14,21,30,7.80
